Date,TemperatureHighF,TemperatureAvgF,TemperatureLowF,DewpointHighF,DewpointAvgF,DewpointLowF,HumidityHigh,HumidityAvg,HumidityLow,PressureMaxIn,PressureMinIn,WindSpeedMaxMPH,WindSpeedAvgMPH,GustSpeedMaxMPH,PrecipitationSumIn
2013-7-1,75,72,70,-100,-100,-100,0,0,100,30.08,29.93,24,15,25,0.00
2013-7-2,76,73,72,-100,-100,-100,0,0,100,30.19,30.08,21,16,23,0.00
2013-7-3,83,76,72,-100,-100,-100,0,0,100,30.22,30.15,22,14,29,0.00
2013-7-4,86,81,75,-100,-100,-100,0,0,100,30.21,30.11,20,12,23,0.00
2013-7-5,87,81,77,-100,-100,-100,0,0,100,30.17,30.05,21,11,25,0.00
2013-7-6,89,83,77,-100,-100,-100,0,0,100,30.08,29.97,20,9,25,0.00
2013-7-7,89,82,78,-100,-100,-100,0,0,100,30.01,29.89,22,9,26,0.00
2013-7-8,87,81,73,-100,-100,-100,0,0,100,30.02,29.90,19,11,21,0.00
2013-7-9,78,72,68,-100,-100,-100,0,0,100,30.08,30.01,13,-7,20,0.00
2013-7-10,79,74,73,-100,-100,-100,0,0,100,30.04,29.80,25,13,28,0.00
2013-7-11,77,76,72,-100,-100,-100,0,0,100,29.88,29.78,16,10,23,0.00
2013-7-12,76,72,68,-100,-100,-100,0,0,100,30.15,29.88,21,13,27,0.00
2013-7-13,78,72,67,-100,-100,-100,0,0,100,30.28,30.16,11,-24,13,0.00
2013-7-14,88,80,73,-100,-100,-100,0,0,100,30.28,30.18,15,-22,18,0.00
2013-7-15,89,82,76,-100,-100,-100,0,0,100,30.19,30.07,11,-16,12,0.00
2013-7-16,90,83,77,-100,-100,-100,0,0,100,30.14,30.07,17,9,19,0.00
2013-7-17,85,79,76,-100,-100,-100,0,0,100,30.17,30.02,19,-255,21,0.00
2013-7-18,90,82,76,-100,-100,-100,0,0,100,30.03,29.93,20,10,21,0.00
2013-7-19,91,84,78,-100,-100,-100,0,0,100,29.94,29.74,27,16,32,0.00
2013-7-20,88,82,77,-100,-100,-100,0,0,100,29.78,29.65,24,12,30,0.00
2013-7-21,80,76,73,-100,-100,-100,0,0,100,29.97,29.78,14,-8,15,0.00
2013-7-22,81,75,72,-100,-100,-100,0,0,100,29.98,29.86,14,6,15,0.00
2013-7-23,81,76,73,-100,-100,-100,0,0,100,29.86,29.53,23,13,26,0.00
2013-7-24,85,80,74,-100,-100,-100,0,0,100,29.85,29.57,16,-39,19,0.00
2013-7-25,74,64,61,-100,-100,-100,0,0,100,30.04,29.88,20,14,25,0.00
2013-7-26,72,66,62,-100,-100,-100,0,0,100,30.01,29.91,24,14,29,0.00
2013-7-27,76,72,67,-100,-100,-100,0,0,100,30.05,29.99,22,13,25,0.00
2013-7-28,78,72,69,-100,-100,-100,0,0,100,30.00,29.93,20,9,22,0.00
2013-7-29,77,73,71,-100,-100,-100,0,0,100,30.02,29.96,21,10,23,0.00
2013-7-30,79,74,69,-100,-100,-100,0,0,100,30.08,30.01,19,11,22,0.00
2013-7-31,78,72,66,-100,-100,-100,0,0,100,30.11,30.03,17,-3,18,0.00